#timestamp,LO_Frequency,Hit,StdDev 
1661166015.4,286047001.1,N
1661166035.3,286047001.2,N
1661166055.1,286047001.1,N
1661166075.9,286046998.2,N
1661166095.7,286046998.2,N
1661166115.5,286046998.2,N
1661166135.4,286046998.8,N
1661166155.2,286046999.5,N
1661166175.0,286046998.4,N
1661166176.0,286046998.4,N
1661166195.8,286046998.3,N
1661166215.6,286046999.0,N
1661166235.5,286046998.4,N
1661166255.3,286046998.4,N
1661166275.1,286046998.9,N
1661166295.9,286046998.1,N
1661166315.7,286046998.3,N
1661166335.6,286046998.4,N
1661166355.4,286046998.2,N
1661166375.2,286047000.9,N
1661166395.1,286046998.2,N
1661166396.0,286046998.2,N
1661166415.8,286046999.0,N
1661166435.6,286046998.3,N
1661166455.5,286046998.9,N
1661166475.3,286046999.5,N
1661166495.2,286046996.6,Y
1661166515.0,286047001.1,P
1661166515.9,286047001.1,N
1661166535.7,286046998.1,N
1661166555.6,286046998.1,N
1661166575.4,286047001.1,N
1661166595.3,286046998.3,N
1661166615.1,286047001.1,N
1661166616.0,286047001.1,N
1661166635.8,286047000.5,N
1661166655.7,286046999.7,N
1661166675.5,286046999.8,N
1661166695.3,286046999.8,N
1661166715.2,286047000.0,N
1661166735.0,286047000.3,N
1661166735.9,286047000.3,N
1661166755.8,286046998.4,N
1661166775.6,286046998.4,N
1661166795.4,286046998.3,N
1661166815.3,286046998.5,N
1661166835.1,286047000.5,N
1661166855.8,286047000.0,N
1661166875.7,286047000.1,N
1661166895.5,286047000.2,N
1661166915.4,286047002.7,N
1661166935.2,286046999.8,N
1661166955.0,286047000.3,N
1661166955.9,286047000.3,N
1661166975.8,286047000.5,N
1661166995.6,286046998.1,N
1661167015.4,286047000.7,N
1661167035.3,286047000.6,N
1661167055.1,286047000.9,N
1661167075.9,286047000.7,N
1661167095.7,286047000.5,N
1661167115.5,286047000.3,N
1661167135.4,286047000.6,N
1661167155.2,286047001.0,N
1661167175.0,286047000.1,N
1661167175.9,286047000.1,N
1661167195.8,286047002.8,N
1661167215.6,286047000.1,N
1661167235.5,286046999.7,N
1661167255.3,286047001.9,N
1661167275.1,286047002.5,N
1661167295.9,286047004.4,Y
1661167315.7,286046999.7,P
1661167335.5,286047002.4,P
1661167355.4,286047002.8,N
1661167375.2,286047002.3,N
1661167395.1,286047002.5,N
1661167396.0,286047002.5,N
1661167415.8,286047001.3,N
1661167435.6,286047002.1,N
1661167455.5,286046999.9,N
1661167475.3,286046999.9,N
1661167495.1,286047000.2,N
1661167515.9,286047002.8,N
1661167535.7,286047000.6,N
1661167555.6,286047000.9,N
1661167575.4,286047001.0,N
1661167595.2,286046998.2,N
1661167615.1,286047000.8,N
1661167616.0,286047000.8,N
1661167635.8,286047000.4,N
1661167655.6,286047000.5,N
1661167675.5,286047000.7,N
1661167695.3,286047000.0,N
1661167715.2,286047000.9,N
1661167735.9,286047000.7,N
1661167755.7,286046999.0,N
1661167775.6,286046999.2,N
1661167795.4,286046996.6,N
1661167815.2,286046996.6,N
1661167835.1,286046996.6,N
1661167836.0,286046996.6,N
1661167855.8,286046996.7,N
1661167875.7,286046997.1,N
1661167895.5,286046997.8,N
1661167915.3,286046997.5,N
1661167935.2,286046997.8,N
1661167955.0,286046997.5,N
1661167955.9,286046997.5,N
1661167975.7,286046997.4,N
1661167995.6,286046999.0,N
1661168015.4,286046999.4,N
1661168035.3,286046999.4,N
1661168055.1,286046999.3,N
1661168056.0,286046999.3,N
1661168075.8,286046999.0,N
1661168095.7,286047000.9,N
1661168115.5,286046998.2,N
1661168135.3,286047001.1,N
1661168155.2,286046998.6,N
1661168175.0,286046999.3,N
1661168175.9,286046999.3,N
1661168195.8,286046999.6,N
1661168215.6,286046997.5,N
1661168235.4,286046997.8,N
1661168255.3,286046997.6,N
1661168275.1,286046997.9,N
1661168295.8,286046997.4,N
1661168315.7,286046997.5,N
1661168335.5,286046997.9,N
1661168355.4,286046997.3,N
1661168375.2,286046997.4,N
1661168395.0,286046997.6,N
1661168395.9,286046997.6,N
1661168415.8,286046997.8,N
1661168435.6,286046995.2,Y
1661168455.4,286046999.6,P
1661168475.3,286046999.5,N
1661168495.1,286046996.8,P
1661168515.9,286046999.5,N
1661168535.7,286046997.1,N
1661168555.5,286046997.6,N
1661168575.4,286046998.0,N
1661168595.2,286046997.4,N
1661168615.1,286046997.8,N
1661168616.0,286046997.8,N
1661168635.8,286046997.9,N
1661168655.6,286046997.6,N
1661168675.5,286046997.5,N
1661168695.3,286046997.2,Y
1661168715.1,286046998.4,P
1661168735.9,286046998.1,P
1661168755.7,286046999.4,P
1661168775.6,286046998.4,N
1661168795.4,286046998.2,Y
1661168815.2,286047002.5,P
1661168835.1,286047002.5,N
1661168836.0,286047002.5,N
1661168855.8,286047002.4,N
1661168875.6,286047002.8,N
1661168895.5,286047002.7,N
1661168915.3,286047002.4,N
1661168935.7,286047002.1,N
1661168955.5,286047002.2,N
1661168975.4,286047002.2,N
1661168995.2,286047002.2,N
1661169015.0,286047001.6,N
1661169015.9,286047001.6,N
1661169035.8,286047002.2,N
1661169055.6,286047002.1,N
1661169075.5,286047002.2,N
1661169095.3,286047004.4,Y
1661169115.1,286047000.6,P
1661169135.9,286047000.2,N
1661169155.7,286047001.0,N
1661169175.6,286047000.4,N
1661169195.4,286047000.6,N
1661169215.2,286047000.3,N
1661169235.1,286047000.4,N
1661169236.0,286047000.4,N
1661169255.8,286047001.0,N
1661169275.7,286047000.5,N
1661169295.5,286047000.3,N
1661169315.3,286047001.1,N
1661169335.2,286047000.3,N
1661169355.0,286046999.8,N
1661169355.9,286046999.8,N
1661169375.8,286046999.8,N
1661169395.6,286047002.4,Y
1661169415.4,286047002.8,P
1661169435.3,286047002.8,N
1661169455.1,286047002.8,N
1661169475.9,286047002.5,N
1661169495.7,286046999.9,N
1661169515.5,286047000.1,N
1661169535.4,286047000.6,N
1661169555.2,286047000.8,N
1661169575.0,286046998.1,N
1661169576.0,286046998.1,N
1661169595.8,286047001.1,N
